Location: Aufkirchen
(47.9603°N, 11.3653°E)
Time: 03:27:16
(UTC+01:00)

Vanguard 3 - Pass Details

Date: 28 November 2020
Orbit: 508 x 3262 km, 33.3° (Epoch: 23 January)

Event Time Altitude Azimuth Distance (km) Brightness Sun altitude
Rises 23:15:24 0° 237° (WSW) 2,720 - -61.9°
Reaches altitude 10° 23:18:12 10° 212° (SSW) 2,006 - -62.1°
Maximum altitude 23:20:50 15° 175° (S) 1,898 - -62.2°
Drops below altitude 10° 23:24:05 10° 141° (SE) 2,567 - -62.4°
Sets 23:28:30 0° 121° (ESE) 4,033 - -62.7°
